Time,TemperatureF,DewpointF,PressureIn,WindDirection,WindDirectionDegrees,WindSpeedMPH,WindSpeedGustMPH,Humidity,HourlyPrecipIn,Conditions,Clouds,dailyrainin,SoftwareType,DateUTC
2013-02-10 00:01:00,44.0,-99.9,-100.00,West,266,5.0,-999.0,-999,-99.99,,,-99.99,,2013-02-10 08:01:00,
2013-02-10 00:11:00,44.0,-99.9,-100.00,West,266,5.0,-999.0,-999,-99.99,,,-99.99,,2013-02-10 08:11:00,
2013-02-10 00:20:00,43.0,-99.9,-100.00,WSW,252,2.0,-999.0,-999,-99.99,,,-99.99,,2013-02-10 08:20:00,
2013-02-10 01:02:00,43.0,-99.9,-100.00,WSW,252,2.0,-999.0,-999,-99.99,,,-99.99,,2013-02-10 09:02:00,
2013-02-10 01:11:00,43.0,-99.9,-100.00,WSW,252,2.0,-999.0,-999,-99.99,,,-99.99,,2013-02-10 09:11:00,
2013-02-10 01:20:00,43.0,-99.9,-100.00,WNW,294,6.0,-999.0,-999,-99.99,,,-99.99,,2013-02-10 09:20:00,
2013-02-10 02:02:00,43.0,-99.9,-100.00,WNW,294,6.0,-999.0,-999,-99.99,,,-99.99,,2013-02-10 10:02:00,
2013-02-10 02:11:00,43.0,-99.9,-100.00,WNW,294,6.0,-999.0,-999,-99.99,,,-99.99,,2013-02-10 10:11:00,
2013-02-10 02:20:00,44.0,-99.9,-100.00,WNW,303,6.0,-999.0,-999,-99.99,,,-99.99,,2013-02-10 10:20:00,
2013-02-10 03:01:00,44.0,-99.9,-100.00,WNW,303,6.0,-999.0,-999,-99.99,,,-99.99,,2013-02-10 11:01:00,
2013-02-10 03:11:00,44.0,-99.9,-100.00,WNW,303,6.0,-999.0,-999,-99.99,,,-99.99,,2013-02-10 11:11:00,
2013-02-10 03:20:00,44.0,-99.9,-100.00,NNW,339,7.0,-999.0,-999,-99.99,,,-99.99,,2013-02-10 11:20:00,
2013-02-10 04:02:00,44.0,-99.9,-100.00,NNW,339,7.0,-999.0,-999,-99.99,,,-99.99,,2013-02-10 12:02:00,
2013-02-10 04:12:00,44.0,-99.9,-100.00,NNW,339,7.0,-999.0,-999,-99.99,,,-99.99,,2013-02-10 12:12:00,
2013-02-10 04:20:00,44.0,-99.9,-100.00,NE,42,6.0,-999.0,-999,-99.99,,,-99.99,,2013-02-10 12:20:00,
2013-02-10 05:02:00,44.0,-99.9,-100.00,NE,42,6.0,-999.0,-999,-99.99,,,-99.99,,2013-02-10 13:02:00,
2013-02-10 05:12:00,44.0,-99.9,-100.00,NE,42,6.0,-999.0,-999,-99.99,,,-99.99,,2013-02-10 13:12:00,
2013-02-10 05:20:00,44.0,-99.9,-100.00,NNE,30,5.0,-999.0,-999,-99.99,,,-99.99,,2013-02-10 13:20:00,
2013-02-10 06:02:00,44.0,-99.9,-100.00,NNE,30,5.0,-999.0,-999,-99.99,,,-99.99,,2013-02-10 14:02:00,
2013-02-10 06:11:00,44.0,-99.9,-100.00,NNE,30,5.0,-999.0,-999,-99.99,,,-99.99,,2013-02-10 14:11:00,
2013-02-10 06:20:00,43.0,-99.9,-100.00,NW,326,3.0,-999.0,-999,-99.99,,,-99.99,,2013-02-10 14:20:00,
2013-02-10 07:02:00,43.0,-99.9,-100.00,NW,326,3.0,-999.0,-999,-99.99,,,-99.99,,2013-02-10 15:02:00,
2013-02-10 07:12:00,43.0,-99.9,-100.00,NW,326,3.0,-999.0,-999,-99.99,,,-99.99,,2013-02-10 15:12:00,
2013-02-10 07:20:00,41.0,-99.9,-100.00,WSW,241,0.0,-999.0,-999,-99.99,,,-99.99,,2013-02-10 15:20:00,
2013-02-10 08:02:00,41.0,-99.9,-100.00,WSW,241,0.0,-999.0,-999,-99.99,,,-99.99,,2013-02-10 16:02:00,
2013-02-10 08:12:00,41.0,-99.9,-100.00,WSW,241,0.0,-999.0,-999,-99.99,,,-99.99,,2013-02-10 16:12:00,
2013-02-10 08:20:00,41.0,-99.9,-100.00,SW,230,0.0,-999.0,-999,-99.99,,,-99.99,,2013-02-10 16:20:00,
2013-02-10 09:02:00,41.0,-99.9,-100.00,SW,230,0.0,-999.0,-999,-99.99,,,-99.99,,2013-02-10 17:02:00,
2013-02-10 09:12:00,41.0,-99.9,-100.00,SW,230,0.0,-999.0,-999,-99.99,,,-99.99,,2013-02-10 17:12:00,
2013-02-10 09:20:00,43.0,-99.9,-100.00,North,352,3.0,-999.0,-999,-99.99,,,-99.99,,2013-02-10 17:20:00,
2013-02-10 10:02:00,43.0,-99.9,-100.00,North,352,3.0,-999.0,-999,-99.99,,,-99.99,,2013-02-10 18:02:00,
2013-02-10 10:12:00,43.0,-99.9,-100.00,North,352,3.0,-999.0,-999,-99.99,,,-99.99,,2013-02-10 18:12:00,
2013-02-10 10:20:00,41.0,-99.9,-100.00,NW,316,3.0,-999.0,-999,-99.99,,,-99.99,,2013-02-10 18:20:00,
2013-02-10 11:02:00,41.0,-99.9,-100.00,NW,316,3.0,-999.0,-999,-99.99,,,-99.99,,2013-02-10 19:02:00,
2013-02-10 11:12:00,41.0,-99.9,-100.00,NW,316,3.0,-999.0,-999,-99.99,,,-99.99,,2013-02-10 19:12:00,
2013-02-10 11:20:00,42.0,-99.9,-100.00,NW,316,3.0,-999.0,-999,-99.99,,,-99.99,,2013-02-10 19:20:00,
2013-02-10 12:02:00,42.0,-99.9,-100.00,NW,316,3.0,-999.0,-999,-99.99,,,-99.99,,2013-02-10 20:02:00,
2013-02-10 12:12:00,42.0,-99.9,-100.00,NW,316,3.0,-999.0,-999,-99.99,,,-99.99,,2013-02-10 20:12:00,
2013-02-10 12:20:00,42.0,-99.9,-100.00,WNW,301,3.0,-999.0,-999,-99.99,,,-99.99,,2013-02-10 20:20:00,
2013-02-10 13:03:00,42.0,-99.9,-100.00,WNW,301,3.0,-999.0,-999,-99.99,,,-99.99,,2013-02-10 21:03:00,
2013-02-10 13:12:00,42.0,-99.9,-100.00,WNW,301,3.0,-999.0,-999,-99.99,,,-99.99,,2013-02-10 21:12:00,
2013-02-10 13:20:00,43.0,-99.9,-100.00,North,0,0.0,-999.0,-999,-99.99,,,-99.99,,2013-02-10 21:20:00,
2013-02-10 14:02:00,43.0,-99.9,-100.00,North,0,0.0,-999.0,-999,-99.99,,,-99.99,,2013-02-10 22:02:00,
2013-02-10 14:12:00,43.0,-99.9,-100.00,North,0,0.0,-999.0,-999,-99.99,,,-99.99,,2013-02-10 22:12:00,
2013-02-10 14:20:00,44.0,-99.9,-100.00,West,278,2.0,-999.0,-999,-99.99,,,-99.99,,2013-02-10 22:20:00,
2013-02-10 15:02:00,44.0,-99.9,-100.00,West,278,2.0,-999.0,-999,-99.99,,,-99.99,,2013-02-10 23:02:00,
2013-02-10 15:12:00,44.0,-99.9,-100.00,West,278,2.0,-999.0,-999,-99.99,,,-99.99,,2013-02-10 23:12:00,
2013-02-10 15:20:00,44.0,-99.9,-100.00,West,277,1.0,-999.0,-999,-99.99,,,-99.99,,2013-02-10 23:20:00,
2013-02-10 16:02:00,44.0,-99.9,-100.00,West,277,1.0,-999.0,-999,-99.99,,,-99.99,,2013-02-11 00:02:00,
2013-02-10 16:11:00,44.0,-99.9,-100.00,West,277,1.0,-999.0,-999,-99.99,,,-99.99,,2013-02-11 00:11:00,
2013-02-10 16:20:00,44.0,-99.9,-100.00,West,263,3.0,-999.0,-999,-99.99,,,-99.99,,2013-02-11 00:20:00,
2013-02-10 17:02:00,44.0,-99.9,-100.00,West,263,3.0,-999.0,-999,-99.99,,,-99.99,,2013-02-11 01:02:00,
2013-02-10 17:11:00,44.0,-99.9,-100.00,West,263,3.0,-999.0,-999,-99.99,,,-99.99,,2013-02-11 01:11:00,
2013-02-10 17:20:00,44.0,-99.9,-100.00,WSW,245,2.0,-999.0,-999,-99.99,,,-99.99,,2013-02-11 01:20:00,
2013-02-10 18:01:00,44.0,-99.9,-100.00,WSW,245,2.0,-999.0,-999,-99.99,,,-99.99,,2013-02-11 02:01:00,
2013-02-10 18:11:00,44.0,-99.9,-100.00,WSW,245,2.0,-999.0,-999,-99.99,,,-99.99,,2013-02-11 02:11:00,
2013-02-10 18:20:00,44.0,-99.9,-100.00,WSW,257,3.0,-999.0,-999,-99.99,,,-99.99,,2013-02-11 02:20:00,
2013-02-10 19:02:00,44.0,-99.9,-100.00,WSW,257,3.0,-999.0,-999,-99.99,,,-99.99,,2013-02-11 03:02:00,
2013-02-10 19:11:00,44.0,-99.9,-100.00,WSW,257,3.0,-999.0,-999,-99.99,,,-99.99,,2013-02-11 03:11:00,
2013-02-10 19:20:00,43.0,-99.9,-100.00,SW,234,3.0,-999.0,-999,-99.99,,,-99.99,,2013-02-11 03:20:00,
2013-02-10 20:02:00,43.0,-99.9,-100.00,SW,234,3.0,-999.0,-999,-99.99,,,-99.99,,2013-02-11 04:02:00,
2013-02-10 20:11:00,43.0,-99.9,-100.00,SW,234,3.0,-999.0,-999,-99.99,,,-99.99,,2013-02-11 04:11:00,
2013-02-10 20:20:00,43.0,-99.9,-100.00,WSW,240,0.0,-999.0,-999,-99.99,,,-99.99,,2013-02-11 04:20:00,
2013-02-10 21:02:00,43.0,-99.9,-100.00,WSW,240,0.0,-999.0,-999,-99.99,,,-99.99,,2013-02-11 05:02:00,
2013-02-10 21:12:00,43.0,-99.9,-100.00,WSW,240,0.0,-999.0,-999,-99.99,,,-99.99,,2013-02-11 05:12:00,
2013-02-10 21:20:00,44.0,-99.9,-100.00,SE,146,1.0,-999.0,-999,-99.99,,,-99.99,,2013-02-11 05:20:00,
2013-02-10 22:02:00,44.0,-99.9,-100.00,SE,146,1.0,-999.0,-999,-99.99,,,-99.99,,2013-02-11 06:02:00,
2013-02-10 22:12:00,44.0,-99.9,-100.00,SE,146,1.0,-999.0,-999,-99.99,,,-99.99,,2013-02-11 06:12:00,
2013-02-10 22:20:00,43.0,-99.9,-100.00,North,0,0.0,-999.0,-999,-99.99,,,-99.99,,2013-02-11 06:20:00,
2013-02-10 23:02:00,43.0,-99.9,-100.00,North,0,0.0,-999.0,-999,-99.99,,,-99.99,,2013-02-11 07:02:00,
2013-02-10 23:12:00,43.0,-99.9,-100.00,North,0,0.0,-999.0,-999,-99.99,,,-99.99,,2013-02-11 07:12:00,
2013-02-10 23:20:00,43.0,-99.9,-100.00,SW,229,1.0,-999.0,-999,-99.99,,,-99.99,,2013-02-11 07:20:00,